FloripaSat 1
1 44885U 19093G   25204.61449146  .00005267  00000-0  44060-3 0  9996
2 44885  97.8185 292.3167 0011958  60.1888 300.0522 14.98857431303349
RS-44
1 44909U 19096E   25204.49160623  .00000022  00000-0  43904-4 0  9993
2 44909  82.5202 198.1031 0217149 192.6090 166.9528 12.79742230260306
UPMSat 2
1 46276U 20061E   25204.17660413  .00104003  00000-0  70884-3 0  9993
2 46276  97.2411 280.1981 0001640 150.3687 209.7671 15.74554246272311
SALSAT
1 46495U 20068K   25204.50486766  .00008206  00000-0  34903-3 0  9997
2 46495  97.8622 184.5845 0011566  19.4208 340.7466 15.23243160265215
CubeSX-Sirius-HSE
1 47951U 21022V   25157.62701764  .07883385  25648-5  89537-3 0  9993
2 47951  97.4004  72.1904 0010275 223.9924 136.0557 16.36879307233400
CubeSX-HSE
1 47952U 21022W   25157.69972699  .06655353  25454-5  93288-3 0  9992
2 47952  97.3980  72.5414 0010307 219.3637 140.6911 16.34906352233436
GRBAlpha
1 47959U 21022AD  25160.45426279  .07940347  25506-5  90589-3 0  9995
2 47959  97.3899  75.6235 0011032 227.2558 132.7812 16.36806138232695
TUBIN
1 48900U 21059X   25204.66482170  .00057686  00000-0  61055-3 0  9997
2 48900  97.6759  17.5942 0003499  81.3945 278.7710 15.63972018226924
LEDSAT
1 49069U 21073D   25204.72393124  .00098647  00000-0  93971-3 0  9991
2 49069  97.3871 288.2838 0007948 260.2447  99.7915 15.66455694218335
CUTE
1 49263U 21088D   25204.19300245  .00053828  00000-0  99338-3 0  9991
2 49263  97.4496 281.7578 0008494  85.8877 274.3344 15.48898690211178
TeikyoSat 4
1 49396U 21102B   25204.61900157  .00001641  00000-0  11108-3 0  9995
2 49396  97.4081 241.4556 0012074 350.4710   9.6287 15.07793402203187
Z-Sat
1 49399U 21102E   25204.61967688  .00003940  00000-0  21560-3 0  9997
2 49399  97.3776 244.8279 0016561 315.1628  44.8265 15.14710555203644
KOSEN 1
1 49402U 21102H   25204.69657235  .00006718  00000-0  30734-3 0  9993
2 49402  97.3680 248.6558 0013935 285.7580  74.2119 15.20765232203998
HO-113
1 50466U 21131B   25204.64967296  .00000555  00000-0  18713-3 0  9999
2 50466  98.5107 293.7881 0004313  21.4629 338.6740 14.40855891187794
Foresail-1
1 52766U 22057AL  25176.64799660  .13857605  27391-5  25307-3 0  9992
2 52766  97.5832 331.2310 0012137 233.7199 258.4922 16.46795272172486
SNUGLITE 2
1 52899U 22065F   25204.39103321  .00001033  00000-0  20948-3 0  9996
2 52899  98.1741 345.9523 0007095 345.8372  14.2630 14.63294085162893
UmKA 1 (RS40S)
1 57172U 23091G   25204.64514073  .00006495  00000-0  34326-3 0  9995
2 57172  97.5558 259.8021 0014525 176.0133 184.1217 15.15743179114157
CubeBel-2 (EU11S)
1 57175U 23091K   25204.62189183  .00010224  00000-0  47720-3 0  9993
2 57175  97.5559 261.2009 0012178 181.1794 178.9414 15.19967992114241
VERONIKA
1 58261U 23174F   25204.61064073  .00408913  00000-0  15350-2 0  9990
2 58261  97.4071 293.8961 0007804 235.9653 124.0878 15.86817654 95625
ENSO
1 58470U 23185J   25204.63307929  .00075788  00000-0  92358-3 0  9990
2 58470  97.3715 281.2985 0005358 263.9620  96.1026 15.60238852 91893
EIRSAT-1
1 58472U 23185L   25204.62525769  .00217402  00000-0  12602-2 0  9999
2 58472  97.3639 284.1259 0005684 246.8189 113.2478 15.77929288 92080
SONATE-2
1 59112U 24043Q   25204.32803027  .00018443  00000-0  51169-3 0  9994
2 59112  97.5181 336.4325 0009723 322.5372  37.5193 15.36927788 77055
MO-122
1 60209U 24125G   25204.59166988  .00020419  00000-0  55554-3 0  9999
2 60209  97.2753  55.7470 0017331 344.5714  15.5001 15.37402664 58714
GRBBeta
1 60237U 24128C   25204.58458200  .00003753  00000-0  28465-3 0  9996
2 60237  61.9922 286.0909 0054858  66.9142 293.7719 15.02940265 56813
Curium One
1 60242U 24128H   25204.54537924  .00006811  00000-0  46836-3 0  9999
2 60242  61.9818 283.8511 0054800  63.1583 297.5097 15.05634552 56859
ROBUSTA-3A
1 60243U 24128J   25204.56186658  .00006943  00000-0  48385-3 0  9993
2 60243  61.9892 284.7708 0053821  60.8729 299.7735 15.05158395 56846
CatSat
1 60246U 24125J   25204.55490984  .00012915  00000-0  42141-3 0  9992
2 60246  97.2554  54.4127 0040148 298.4325  61.2873 15.31115653 56712
HYPERVIEW-1G (RS66S)
1 61772U 24199AP  25204.64343108  .00025725  00000-0  70958-3 0  9993
2 61772  97.3477  73.4419 0014112  42.3770 317.8561 15.36982938 83727
AO-123
1 61781U 24199AY  25204.63561144  .00007681  00000-0  27558-3 0  9993
2 61781  97.3495  71.8239 0016879  46.7001 313.5643 15.28839953 83617
ZIMSAT 2
1 61783U 24199BA  25204.66042448  .00048619  00000-0  10815-2 0  9992
2 61783  97.3449  74.4426 0013266  39.7232 320.4985 15.43407469 86945
HADES-R (SO-124)
1 62690U 25009CK  25204.02515852  .00037334  00000-0  12193-2 0  9998
2 62690  97.4084 284.7349 0001327 277.7592  82.3499 15.31656148 28797
HYDRA-T
1 62692U 25009CM  25204.19845782  .00046093  00000-0  14870-2 0  9992
2 62692  97.4084 284.9607 0001329 260.4941  99.6150 15.32001070 28825
JINJUSat 1B
1 63210U 25052A   25204.60679699  .00012330  00000-0  55171-3 0  9992
2 63210  97.4368  98.1846 0005125 146.3941 213.7621 15.21419571 19949
NUSHSAT 1
1 63211U 25052B   25204.59392536  .00015095  00000-0  66837-3 0  9995
2 63211  97.4358  98.1847 0004953 150.5826 209.5690 15.21733420 19948
TEVEL2-4
1 63213U 25052D   25204.41927426  .00013302  00000-0  59536-3 0  9997
2 63213  97.4276  97.8205 0003671 158.9832 201.1555 15.21397163 19913
TEVEL2-5
1 63214U 25052E   25204.68357751  .00013101  00000-0  58673-3 0  9993
2 63214  97.4277  98.0788 0003674 158.3427 201.7965 15.21378820 19955
TEVEL2-6
1 63215U 25052F   25204.62111180  .00013267  00000-0  59483-3 0  9995
2 63215  97.4276  98.0114 0003729 159.3777 200.7610 15.21337192 19940
TEVEL2-1
1 63217U 25052H   25204.63861468  .00013493  00000-0  60899-3 0  9993
2 63217  97.4252  97.9461 0003349 172.8212 187.3072 15.21108396 19945
TEVEL2-2
1 63218U 25052J   25204.44151975  .00013530  00000-0  61066-3 0  9997
2 63218  97.4253  97.7527 0003322 175.4656 184.6611 15.21106685 19915
TEVEL2-3
1 63219U 25052K   25204.63917369  .00013654  00000-0  61628-3 0  9997
2 63219  97.4255  97.9465 0003333 174.0289 186.0987 15.21104063 19943
TEVEL2-8
1 63237U 25052AD  25204.60818444  .00012224  00000-0  57207-3 0  9998
2 63237  97.4315  97.7915 0006937 208.3523 151.7335 15.19866068 19924
TEVEL2-9
1 63238U 25052AE  25204.87575161  .00012389  00000-0  58081-3 0  9997
2 63238  97.4319  98.0483 0007140 207.5308 152.5549 15.19802833 19962
TEVEL2-7
1 63239U 25052AF  25204.22025772  .00011383  00000-0  53471-3 0  9996
2 63239  97.4318  97.3945 0006982 210.3720 149.7111 15.19754924 19869
HYDRA-W
1 63490U 25052BL  25204.13864522  .00032484  00000-0  12955-2 0  9995
2 63490  97.4262  97.8715 0010379 207.8171 152.2513 15.25073598 19898
HADES-ICM (SO-125)
1 63492U 25052BN  25204.69242116  .00029278  00000-0  11863-2 0  9991
2 63492  97.4270  98.3634 0010452 210.3814 149.6819 15.24562600 19974
